User: anonymous   Login
Location: Unspecified
(0.0000°N, 0.0000°E)
Time: 08:18:17
(UTC+00:00)
Language:

BREEZE-M R/B - Orbit

View from above orbital plane
View from above orbital plane
View from above satellite
View from above satellite

Ground track
Ground track

The orbit data is extracted from the following two-line orbital elements,

1 39173U 13026B   21131.85681878 -.00000149  00000-0  00000-0 0  9999
2 39173  23.8564 116.8954 7696162 282.6131   8.7799  1.10516782 31664
Epoch (UTC): 11 May 2021 20:33:49
Eccentricity: 0.7696162
inclination: 23.8564°
perigee height: 2726 km
apogee height: 63551 km
right ascension of ascending node: 116.8954°
argument of perigee: 282.6131°
revolutions per day: 1.10516782
mean anomaly at epoch: 8.7799°
orbit number at epoch: 3166

The dashed part of the orbit path shows where the satellite is in the earth's shadow,  

DLR